Humidity-temperature Sensor

Selected Measurement Type: Relative Humidity

 
Relative Humidity [%]     6 entries per hour
Showing data from 2/9/2023 (00:00:00 Z) to 2/2/2023 (00:01:00 Z)
Previous Next [ Day | 3-Days | 7-Days ]
First Last
Prev [ Day | 3-Days | 7-Days ] Next
First Last

Start Time:     :
End Time:     :     
Time (in GMT) :00 :50 :40 :30 :20 :10
Previous Next [ Day | 3-Days | 7-Days ]
First Last
Prev [ Day | 3-Days | 7-Days ] Next
First Last


123 => good data
MM => data is determined as missing
-- => data not received/configured
Back to Top Back to Top
2/9/2023 00:00 to 23:10 90.37 90.35 90.33 90.45 90.27 90.18
2/8/2023 23:00 to 22:10 90.47 90.31 90.37 89.96 89.36 89.42
2/8/2023 22:00 to 21:10 89.46 89.38 89.18 89.16 89.44 89.81
2/8/2023 21:00 to 20:10 89.83 89.77 89.83 89.57 89.48 89.73
2/8/2023 20:00 to 19:10 89.94 90.10 90.20 90.57 90.51 90.39
2/8/2023 19:00 to 18:10 90.20 89.48 89.26 89.55 89.96 90.08
2/8/2023 18:00 to 17:10 89.73 89.90 89.63 89.77 89.77 89.98
2/8/2023 17:00 to 16:10 90.06 89.87 90.04 90.22 90.51 90.57
2/8/2023 16:00 to 15:10 90.70 90.76 90.53 90.37 90.06 90.16
2/8/2023 15:00 to 14:10 89.94 89.98 90.08 90.18 90.31 90.43
2/8/2023 14:00 to 13:10 90.39 90.72 90.66 90.98 91.05 91.07
2/8/2023 13:00 to 12:10 91.00 91.11 91.37 91.37 91.17 91.29
2/8/2023 12:00 to 11:10 91.37 91.27 91.15 91.21 91.09 91.17
2/8/2023 11:00 to 10:10 91.07 91.23 91.44 91.70 91.64 91.42
2/8/2023 10:00 to 9:10 91.42 91.11 91.03 91.05 91.23 91.29
2/8/2023 09:00 to 8:10 91.42 91.19 91.17 91.00 91.07 90.94
2/8/2023 08:00 to 7:10 91.07 90.98 90.70 91.05 91.40 91.52
2/8/2023 07:00 to 6:10 91.97 92.26 91.99 92.05 91.97 91.89
2/8/2023 06:00 to 5:10 91.77 91.83 92.09 92.14 92.40 92.44
2/8/2023 05:00 to 4:10 92.32 92.63 92.83 92.79 92.69 92.50
2/8/2023 04:00 to 3:10 92.48 92.22 92.20 92.09 92.09 91.95
2/8/2023 03:00 to 2:10 92.24 92.30 92.14 92.22 92.07 92.03
2/8/2023 02:00 to 1:10 92.22 91.99 91.40 91.33 91.40 91.40
2/8/2023 01:00 to 0:10 91.21 90.63 90.06 89.13 88.27 87.76
2/8/2023 00:00 to 23:10 87.61 87.39 87.26 87.10 87.47 88.42
2/7/2023 23:00 to 22:10 88.83 88.52 88.25 88.25 88.60 88.93
2/7/2023 22:00 to 21:10 89.63 89.53 89.40 89.16 89.34 89.40
2/7/2023 21:00 to 20:10 89.94 90.35 90.80 90.90 90.92 90.72
2/7/2023 20:00 to 19:10 90.47 90.12 90.29 90.51 90.51 90.59
2/7/2023 19:00 to 18:10 90.72 90.61 90.27 89.98 90.27 90.45
2/7/2023 18:00 to 17:10 90.45 90.29 90.31 90.24 90.24 90.02
2/7/2023 17:00 to 16:10 90.22 90.31 89.90 89.44 89.22 89.18
2/7/2023 16:00 to 15:10 89.16 89.61 89.71 89.65 89.63 90.04
2/7/2023 15:00 to 14:10 90.24 89.71 89.36 89.20 89.05 89.11
2/7/2023 14:00 to 13:10 88.66 88.48 88.40 87.92 87.66 88.13
2/7/2023 13:00 to 12:10 88.23 88.54 88.77 88.74 89.05 89.44
2/7/2023 12:00 to 11:10 89.87 90.24 90.37 89.83 89.44 89.03
2/7/2023 11:00 to 10:10 88.60 88.58 88.44 88.31 89.11 89.34
2/7/2023 10:00 to 9:10 89.01 89.07 89.36 89.28 89.09 89.32
2/7/2023 09:00 to 8:10 89.46 89.65 89.77 89.81 89.94 90.16
2/7/2023 08:00 to 7:10 90.18 90.12 89.67 89.65 89.42 89.48
2/7/2023 07:00 to 6:10 89.55 89.92 90.31 90.41 90.35 90.27
2/7/2023 06:00 to 5:10 89.87 89.28 89.11 89.42 90.06 90.10
2/7/2023 05:00 to 4:10 90.20 90.45 90.33 90.63 90.82 90.53
2/7/2023 04:00 to 3:10 90.22 89.98 89.65 89.77 89.83 89.92
2/7/2023 03:00 to 2:10 89.46 89.48 89.50 88.99 89.30 89.38
2/7/2023 02:00 to 1:10 88.99 89.22 89.40 89.59 89.48 89.71
2/7/2023 01:00 to 0:10 89.65 89.46 89.53 89.07 88.99 89.07
2/7/2023 00:00 to 23:10 89.42 89.71 89.90 90.14 90.12 89.94
2/6/2023 23:00 to 22:10 90.24 90.18 89.85 89.92 90.00 89.59
2/6/2023 22:00 to 21:10 89.26 88.37 87.08 86.26 86.92 88.21
2/6/2023 21:00 to 20:10 89.65 90.39 91.11 91.23 91.31 91.66
2/6/2023 20:00 to 19:10 92.18 92.24 92.55 92.69 92.67 92.38
2/6/2023 19:00 to 18:10 92.32 92.14 92.09 92.28 92.22 92.30
2/6/2023 18:00 to 17:10 92.24 92.73 93.00 92.81 92.98 92.75
2/6/2023 17:00 to 16:10 92.65 92.75 92.81 92.73 92.90 93.04
2/6/2023 16:00 to 15:10 92.92 92.71 92.73 92.63 92.46 92.44
2/6/2023 15:00 to 14:10 92.77 92.71 92.57 92.55 92.81 92.83
2/6/2023 14:00 to 13:10 92.81 93.00 92.98 92.85 92.90 93.02
2/6/2023 13:00 to 12:10 93.14 92.85 92.79 92.81 92.50 92.63
2/6/2023 12:00 to 11:10 93.04 92.90 92.69 92.83 92.85 92.94
2/6/2023 11:00 to 10:10 92.85 92.36 92.48 92.57 92.46 92.90
2/6/2023 10:00 to 9:10 92.96 92.83 92.59 92.77 92.67 92.79
2/6/2023 09:00 to 8:10 92.44 92.38 92.48 92.36 92.53 93.02
2/6/2023 08:00 to 7:10 93.18 93.33 93.37 93.20 93.24 93.12
2/6/2023 07:00 to 6:10 93.27 93.18 93.29 93.37 93.43 93.31
2/6/2023 06:00 to 5:10 93.43 93.74 93.78 93.80 93.51 93.53
2/6/2023 05:00 to 4:10 93.55 93.51 93.18 92.85 93.20 93.00
2/6/2023 04:00 to 3:10 92.96 92.85 92.48 92.36 92.48 92.38
2/6/2023 03:00 to 2:10 92.32 92.20 92.11 91.70 91.95 92.09
2/6/2023 02:00 to 1:10 91.99 91.70 91.54 91.62 91.31 91.03
2/6/2023 01:00 to 0:10 90.94 91.33 91.33 91.29 91.31 91.23
2/6/2023 00:00 to 23:10 91.00 91.00 91.31 91.40 91.13 90.51
2/5/2023 23:00 to 22:10 90.10 90.31 90.20 90.35 90.22 90.00
2/5/2023 22:00 to 21:10 90.45 90.80 91.15 91.77 92.01 92.38
2/5/2023 21:00 to 20:10 92.83 93.22 93.49 93.61 93.57 93.74
2/5/2023 20:00 to 19:10 93.24 93.12 92.87 92.75 92.63 92.69
2/5/2023 19:00 to 18:10 92.81 92.94 93.02 93.08 93.24 93.24
2/5/2023 18:00 to 17:10 93.00 93.02 93.20 92.77 92.67 92.48
2/5/2023 17:00 to 16:10 92.83 93.04 92.85 92.53 92.46 92.38
2/5/2023 16:00 to 15:10 92.07 92.24 92.38 92.61 92.71 92.71
2/5/2023 15:00 to 14:10 92.50 92.57 92.69 92.79 92.73 92.75
2/5/2023 14:00 to 13:10 92.67 92.81 92.77 92.83 92.98 93.10
2/5/2023 13:00 to 12:10 93.20 93.12 93.10 93.22 93.14 93.37
2/5/2023 12:00 to 11:10 93.68 93.76 93.98 94.00 93.39 93.24
2/5/2023 11:00 to 10:10 93.00 92.87 93.06 92.81 92.77 92.65
2/5/2023 10:00 to 9:10 92.94 93.14 93.08 93.06 92.90 92.94
2/5/2023 09:00 to 8:10 92.90 93.20 93.14 93.08 93.39 93.64
2/5/2023 08:00 to 7:10 94.00 94.52 94.66 94.29 93.27 92.55
2/5/2023 07:00 to 6:10 92.42 92.20 92.01 92.26 92.46 92.73
2/5/2023 06:00 to 5:10 92.87 93.31 93.18 93.12 92.73 92.24
2/5/2023 05:00 to 4:10 91.91 91.85 91.83 91.99 91.91 91.56
2/5/2023 04:00 to 3:10 91.29 91.48 91.66 91.58 91.66 91.66
2/5/2023 03:00 to 2:10 91.64 91.64 91.31 90.88 90.82 90.12
2/5/2023 02:00 to 1:10 89.75 89.61 89.77 90.20 89.92 89.46
2/5/2023 01:00 to 0:10 89.30 89.16 89.20 89.36 89.81 89.71
2/5/2023 00:00 to 23:10 89.90 89.65 89.01 88.83 89.36 90.04
2/4/2023 23:00 to 22:10 89.98 89.77 89.32 89.01 88.89 88.33
2/4/2023 22:00 to 21:10 88.21 88.72 88.91 88.52 88.66 89.22
2/4/2023 21:00 to 20:10 88.99 88.83 89.16 89.05 88.52 87.96
2/4/2023 20:00 to 19:10 87.76 87.37 87.18 87.10 87.31 86.77
2/4/2023 19:00 to 18:10 86.77 86.57 86.46 86.46 86.03 86.18
2/4/2023 18:00 to 17:10 85.74 86.26 86.94 86.79 86.09 86.38
2/4/2023 17:00 to 16:10 86.61 86.67 86.05 85.58 85.29 85.74
2/4/2023 16:00 to 15:10 86.20 86.26 86.77 86.71 86.26 86.57
2/4/2023 15:00 to 14:10 86.77 87.14 87.98 87.51 87.47 88.05
2/4/2023 14:00 to 13:10 88.05 87.86 88.09 89.03 89.09 88.87
2/4/2023 13:00 to 12:10 88.70 88.48 88.23 88.19 88.35 88.89
2/4/2023 12:00 to 11:10 89.07 89.03 88.62 87.90 88.09 88.56
2/4/2023 11:00 to 10:10 88.91 89.09 88.74 88.70 89.03 89.38
2/4/2023 10:00 to 9:10 89.59 89.28 89.59 89.79 90.20 90.49
2/4/2023 09:00 to 8:10 90.70 90.94 90.94 90.51 89.96 89.65
2/4/2023 08:00 to 7:10 89.30 89.26 89.34 88.81 88.50 88.37
2/4/2023 07:00 to 6:10 89.20 89.61 89.85 89.71 89.61 90.10
2/4/2023 06:00 to 5:10 90.39 90.14 89.55 89.36 89.44 89.87
2/4/2023 05:00 to 4:10 89.67 89.81 89.81 89.53 88.97 89.18
2/4/2023 04:00 to 3:10 89.20 89.03 88.77 88.99 89.30 88.95
2/4/2023 03:00 to 2:10 89.46 89.59 89.65 89.07 88.83 88.91
2/4/2023 02:00 to 1:10 88.87 88.95 88.64 88.62 89.30 89.59
2/4/2023 01:00 to 0:10 88.81 88.66 88.40 89.05 88.83 88.74
2/4/2023 00:00 to 23:10 89.28 89.16 89.44 90.24 90.76 91.00
2/3/2023 23:00 to 22:10 90.55 90.82 90.53 90.20 90.18 89.87
2/3/2023 22:00 to 21:10 89.34 89.18 90.35 90.39 90.45 90.14
2/3/2023 21:00 to 20:10 90.00 89.90 90.24 90.59 90.68 90.74
2/3/2023 20:00 to 19:10 90.61 89.96 90.06 90.43 89.90 89.83
2/3/2023 19:00 to 18:10 90.10 89.73 89.87 89.71 90.00 90.31
2/3/2023 18:00 to 17:10 90.02 89.40 89.18 88.72 88.99 89.13
2/3/2023 17:00 to 16:10 88.72 89.46 89.28 89.01 88.70 88.52
2/3/2023 16:00 to 15:10 89.28 89.34 89.13 89.22 88.56 87.88
2/3/2023 15:00 to 14:10 88.37 88.37 88.58 88.48 88.07 88.21
2/3/2023 14:00 to 13:10 88.52 88.03 88.33 88.97 89.09 89.50
2/3/2023 13:00 to 12:10 89.44 89.48 89.22 88.93 89.69 90.43
2/3/2023 12:00 to 11:10 90.41 90.61 90.18 89.63 89.85 89.77
2/3/2023 11:00 to 10:10 89.81 90.33 90.84 90.84 91.09 91.35
2/3/2023 10:00 to 9:10 91.83 91.42 91.23 91.19 91.33 91.42
2/3/2023 09:00 to 8:10 91.13 90.98 90.98 91.07 90.74 90.66
2/3/2023 08:00 to 7:10 90.31 89.94 89.42 89.05 89.03 89.65
2/3/2023 07:00 to 6:10 90.22 89.94 90.00 89.48 89.16 89.03
2/3/2023 06:00 to 5:10 89.07 89.57 89.92 90.16 90.43 90.74
2/3/2023 05:00 to 4:10 91.19 91.54 92.30 93.33 93.20 92.98
2/3/2023 04:00 to 3:10 92.79 92.63 92.44 92.18 92.01 92.24
2/3/2023 03:00 to 2:10 92.67 93.04 92.96 93.06 93.12 93.12
2/3/2023 02:00 to 1:10 93.06 93.37 93.55 93.39 93.24 92.75
2/3/2023 01:00 to 0:10 92.26 91.48 91.00 91.64 92.92 93.49
2/3/2023 00:00 to 23:10 94.25 95.18 95.61 95.83 95.67 95.09
2/2/2023 23:00 to 22:10 95.34 95.18 94.15 93.04 90.80 89.98
2/2/2023 22:00 to 21:10 89.96 90.02 90.20 90.27 90.45 90.31
2/2/2023 21:00 to 20:10 90.53 90.80 90.78 91.19 91.07 91.33
2/2/2023 20:00 to 19:10 91.77 91.97 92.22 92.44 92.63 91.37
2/2/2023 19:00 to 18:10 91.62 91.60 91.15 90.66 90.24 89.81
2/2/2023 18:00 to 17:10 89.85 89.94 90.29 90.47 90.55 90.82
2/2/2023 17:00 to 16:10 90.70 90.33 90.59 90.96 90.51 90.55
2/2/2023 16:00 to 15:10 90.92 91.29 91.81 91.95 91.54 91.81
2/2/2023 15:00 to 14:10 91.83 92.01 92.36 92.69 93.33 93.82
2/2/2023 14:00 to 13:10 94.27 94.68 94.99 95.32 95.59 95.53
2/2/2023 13:00 to 12:10 95.77 95.94 95.96 96.24 96.08 95.85
2/2/2023 12:00 to 11:10 95.46 95.42 95.85 96.33 96.84 97.03
2/2/2023 11:00 to 10:10 96.92 96.47 96.33 96.27 95.98 95.46
2/2/2023 10:00 to 9:10 94.58 93.18 93.08 93.22 93.29 93.59
2/2/2023 09:00 to 8:10 93.55 93.57 93.47 93.35 93.43 93.43
2/2/2023 08:00 to 7:10 93.51 93.57 93.49 93.41 93.37 93.39
2/2/2023 07:00 to 6:10 93.51 93.78 93.57 93.88 93.88 93.74
2/2/2023 06:00 to 5:10 93.82 94.13 94.58 95.20 95.42 95.90
2/2/2023 05:00 to 4:10 96.00 96.37 96.51 96.88 97.15 97.52
2/2/2023 04:00 to 3:10 97.95 98.30 98.40 98.48 98.75 98.75
2/2/2023 03:00 to 2:10 98.81 98.88 98.63 98.26 97.99 97.66
2/2/2023 02:00 to 1:10 97.13 96.14 94.60 91.62 91.19 91.77
2/2/2023 01:00 to 0:10 90.82 90.27 90.68 90.70 90.59 90.43